Showing default

IRIDIUM 132, 42961

Orbit data source: Space-Track

IRIDIUM 132, 42961 is a payload satellite owned by Iridium (US) in LEO that was launched on Mon, 09 Oct 2017 UTC via an FALCON 9 launch vehicle from the Air Force Western Test Range (AFWTR). Payload-class satellites include a variety of spacecraft equipped with specific instruments for various scientific and technological missions. These include communications satellites like Starlink; space stations such as the ISS; scientific satellites like the Hubble; Earth observation satellites from companies like Planet Labs, Umbra, and HawkEye 360; GPS; miniature CubeSats for education and research; and military/defense satellites.

Loading next visibility...
Identifier
42961, 2017-061G
Orbit
LEO
Last TLE update
20 hours ago
Origin
Manufacturer
OATK SSG Gilbert
Mission
Operational Commercial Communications
Bus & Motor
ELITEBUS, Unknown motor
Mass
860 kg wet, 700 kg dry
Launch date (UTC)
2017-10-09 (8 years ago)
Launch vehicle
FALCON 9
Launch site
Air Force Western Test Range (AFWTR)
Object type
Payload
Rocket body
Debris
Shape & HBR
Trap Box + 2 Pan, 9.4 m
Radar Cross Section
14.423 m², Large (>1 m²)

Expand to show TLE details & history

TLE from 20 hours ago
0 IRIDIUM 132
1 42961U 17061G   25181.44896624 -.00000002  00000-0 -76194-5 0  9993
2 42961  86.4000 172.2514 0002210  84.9599 275.1849 14.34217464404407
Epoch: 2025-06-30T10:46Z
TLE epoch observation values (Epoch: 2025-06-30T10:46:30.683Z)
Latitude
-0.00001°
Longitude
91.86494°
Altitude
780.576 km
Speed
7.464 km/s
True Right ascension
11h 29m 00s
True Declination
0° 00' 00"
Sunlit
Object was in daylight at epoch
Visualization orbit readout
Latitude
-85.04714°
Longitude
-42.245°
Altitude
807.928 km
Speed
7.448 km/s
Apparent Right ascension
05h 42m 18s
Apparent Declination
-64° 42' 03"
Sunlit
Object is in daylight
Visualization observer readout
Local Sidereal Time
18:03:46
Azimuth
174.568° S
Elevation
-65.02°
Doppler factor
1
Orbital elements
Apogee altitude
776.213 km
Perigee altitude
773.052 km
Semi-major axis
7,152.77 km
Eccentricity
0.00022
Inclination
86.4°
RAAN
172.2514°
Arg. of periapsis
84.9599°
True anomaly
Unknown
Mean anomaly
275.1849°
Eccentric anomaly
Unknown
Mean motion
3.58783 °/min
Orbital period
100.34 mins
BSTAR
-0.0000076194
Loading maneuver chart data...
Loading SW <> Apogee altitude chart data...
Loading historical data...
Loading historical data...
Loading historical data...
Loading historical data...
Loading historical data...
Loading historical data...
Loading historical data...

IRIDIUM 132 Visibility forecast

Observer location: undefined°, undefined°

Span
Click to sort rows by Start time (UTC) header in descending order
Start Az.
Max El. time (UTC)
Max El. Az.
Max El.
End time (UTC)
End Az.
8 mins2025-07-01 10:47:59.498Z21.769° NNE2025-07-01 10:51:59.498Z84.637° E28.761°2025-07-01 10:55:59.498Z142.27° SSE
6 mins2025-07-01 12:29:59.498Z316.106° NNW2025-07-01 12:31:59.498Z284.839° WNW23.521°2025-07-01 12:35:59.498Z226.859° WSW
9 mins2025-07-01 23:43:59.498Z171.875° S2025-07-01 23:47:59.498Z80.382° E43.675°2025-07-01 23:52:59.498Z6.703° NNE
|